GW3733 Weather Reports


Display with metric or nautical units.
time (UTC)temp
F
wind
direction
speed
MPH
gust
MPH
rain 1hr
in
rain 24hr
in
rain mn
in
humidity
%
barometer
mb
20260503040959 41 15 0.0 1.0 0.00 0.00 0.00 73 1010.9
20260503040456 40 16 0.0 0.0 0.00 0.00 0.00 74 1010.8
20260503035953 40 4 1.0 1.0 0.00 0.00 0.00 77 1010.8
20260503035450 41 4 0.0 0.0 0.00 0.00 0.00 74 1010.8
20260503034948 41 346 1.0 1.0 0.00 0.00 0.00 72 1010.4
20260503034445 41 329 1.0 1.0 0.00 0.00 0.00 73 1010.8
20260503033942 41 7 0.0 0.0 0.00 0.00 0.00 72 1010.9
20260503033439 41 354 0.0 0.0 0.00 0.00 0.00 72 1010.8
20260503032936 41 318 1.0 1.0 0.00 0.00 0.00 71 1010.9
20260503032435 42 8 0.0 1.0 0.00 0.00 0.00 68 1011.0
20260503031932 42 325 1.0 2.0 0.00 0.00 0.00 69 1010.6
20260503031424 42 356 0.0 1.0 0.00 0.00 0.00 69 1010.9
20260503030921 42 7 1.0 2.0 0.00 0.00 0.00 69 1010.6
20260503030417 42 334 1.0 1.0 0.00 0.00 0.00 69 1011.0
20260503025914 43 9 0.0 0.0 0.00 0.00 0.00 70 1010.9
20260503025411 43 9 1.0 1.0 0.00 0.00 0.00 67 1010.8
20260503024908 43 14 2.0 2.0 0.00 0.00 0.00 67 1010.9
20260503024404 43 352 0.0 0.0 0.00 0.00 0.00 68 1010.9
20260503023901 43 4 0.0 1.0 0.00 0.00 0.00 67 1011.0
20260503023358 44 5 0.0 0.0 0.00 0.00 0.00 66 1010.9
20260503022855 44 9 0.0 0.0 0.00 0.00 0.00 66 1011.0
20260503022350 44 353 1.0 1.0 0.00 0.00 0.00 64 1010.9
20260503021847 44 10 1.0 1.0 0.00 0.00 0.00 63 1010.9
20260503021343 45 339 1.0 1.0 0.00 0.00 0.00 63 1010.8
20260503020840 45 0 3.0 4.0 0.00 0.00 0.00 61 1011.1
20260503020338 45 13 1.0 1.0 0.00 0.00 0.00 62 1010.9
20260503015834 45 355 1.0 2.0 0.00 0.00 0.00 62 1010.6
20260503015332 45 9 0.0 0.0 0.00 0.00 0.00 63 1010.9
20260503014827 45 347 2.0 3.0 0.00 0.00 0.00 62 1011.1
20260503014325 45 332 2.0 2.0 0.00 0.00 0.00 61 1010.8
20260503013822 45 349 1.0 1.0 0.00 0.00 0.00 62 1010.6
20260503013320 46 351 1.0 1.0 0.00 0.00 0.00 61 1010.5
20260503012816 46 18 1.0 1.0 0.00 0.00 0.00 62 1010.8
20260503012314 46 347 0.0 1.0 0.00 0.00 0.00 61 1010.4
20260503011810 46 353 1.0 1.0 0.00 0.00 0.00 60 1010.6
20260503011308 46 2 2.0 2.0 0.00 0.00 0.00 60 1010.3
20260503010804 46 359 3.0 3.0 0.00 0.00 0.00 59 1010.3
20260503010301 47 356 2.0 2.0 0.00 0.00 0.00 58 1010.1
20260503005758 47 317 2.0 3.0 0.00 0.00 0.00 59 1010.2
20260503005255 47 304 2.0 3.0 0.00 0.00 0.00 59 1009.8
20260503004751 47 347 2.0 2.0 0.00 0.00 0.00 59 1009.9
20260503004250 47 1 0.0 0.0 0.00 0.00 0.00 60 1009.8
20260503003746 47 3 0.0 0.0 0.00 0.00 0.00 60 1009.7
20260503003243 47 6 0.0 0.0 0.00 0.00 0.00 60 1009.6
20260503002740 47 353 0.0 1.0 0.00 0.00 0.00 62 1009.5
20260503002237 48 339 1.0 1.0 0.00 0.00 0.00 58 1009.3
20260503001733 48 338 1.0 1.0 0.00 0.00 0.00 58 1009.3
20260503001229 48 346 0.0 1.0 0.00 0.00 0.00 57 1009.3
20260503000728 48 324 1.0 2.0 0.00 0.00 0.00 58 1009.3
20260503000226 48 348 0.0 1.0 0.00 0.00 0.00 58 1009.5
20260502235721 48 350 1.0 1.0 0.00 0.00 0.00 55 1009.1
20260502235220 49 0 0.0 0.0 0.00 0.00 0.00 57 1008.9
20260502234715 49 359 1.0 1.0 0.00 0.00 0.00 56 1009.3
20260502234213 49 6 2.0 3.0 0.00 0.00 0.00 54 1009.1
20260502233709 49 353 0.0 0.0 0.00 0.00 0.00 56 1008.8
20260502233206 50 324 1.0 1.0 0.00 0.00 0.00 54 1009.0
20260502232701 50 359 2.0 2.0 0.00 0.00 0.00 52 1008.7
20260502232159 50 284 3.0 3.0 0.00 0.00 0.00 50 1008.7
20260502231655 50 2 0.0 1.0 0.00 0.00 0.00 53 1008.7
20260502231153 50 337 0.0 0.0 0.00 0.00 0.00 50 1008.8
20260502230651 51 335 1.0 2.0 0.00 0.00 0.00 50 1008.8
20260502230150 51 340 0.0 1.0 0.00 0.00 0.00 51 1008.7
20260502225645 51 314 2.0 2.0 0.00 0.00 0.00 47 1008.7
20260502225143 51 338 1.0 1.0 0.00 0.00 0.00 51 1008.8
20260502224638 51 3 2.0 3.0 0.00 0.00 0.00 48 1008.7
20260502224136 51 317 1.0 1.0 0.00 0.00 0.00 46 1008.7
20260502223633 52 330 1.0 2.0 0.00 0.00 0.00 49 1008.7
20260502223131 52 33 1.0 1.0 0.00 0.00 0.00 47 1008.5
20260502222628 52 324 1.0 1.0 0.00 0.00 0.00 46 1008.5
20260502222124 52 354 1.0 1.0 0.00 0.00 0.00 48 1008.5
20260502221620 52 312 2.0 3.0 0.00 0.00 0.00 46 1008.5
20260502221118 52 22 2.0 3.0 0.00 0.00 0.00 46 1008.2
20260502220614 52 2 2.0 2.0 0.00 0.00 0.00 49 1008.1
20260502220110 52 0 0.0 0.0 0.00 0.00 0.00 48 1008.1
20260502215608 52 3 2.0 2.0 0.00 0.00 0.00 47 1008.1
20260502215104 52 2 1.0 2.0 0.00 0.00 0.00 44 1008.2
20260502214602 53 347 1.0 2.0 0.00 0.00 0.00 44 1008.3
20260502214059 53 6 1.0 1.0 0.00 0.00 0.00 43 1008.1
20260502213555 53 357 1.0 1.0 0.00 0.00 0.00 44 1008.2
20260502213053 53 7 2.0 2.0 0.00 0.00 0.00 45 1008.3
20260502212552 54 309 1.0 1.0 0.00 0.00 0.00 43 1008.1
20260502212049 53 351 1.0 2.0 0.00 0.00 0.00 43 1008.0
20260502211545 53 333 1.0 1.0 0.00 0.00 0.00 44 1008.2
20260502211042 53 316 1.0 2.0 0.00 0.00 0.00 43 1008.2
20260502210539 53 359 2.0 2.0 0.00 0.00 0.00 44 1008.3
20260502210036 52 12 2.0 2.0 0.00 0.00 0.00 44 1008.1
20260502205533 53 328 2.0 2.0 0.00 0.00 0.00 44 1008.0
20260502205030 53 330 3.0 4.0 0.00 0.00 0.00 45 1008.0
20260502204526 53 341 0.0 1.0 0.00 0.00 0.00 45 1008.1
20260502204024 53 335 3.0 4.0 0.00 0.00 0.00 45 1008.0
20260502203520 53 337 3.0 3.0 0.00 0.00 0.00 46 1008.0
20260502203017 53 357 0.0 1.0 0.00 0.00 0.00 45 1008.1
20260502202513 53 354 2.0 3.0 0.00 0.00 0.00 45 1008.1
20260502202012 53 351 0.0 0.0 0.00 0.00 0.00 50 1008.1
20260502201508 52 348 1.0 1.0 0.00 0.00 0.00 46 1008.3
20260502201004 53 350 1.0 1.0 0.00 0.00 0.00 45 1008.2
20260502200500 52 341 2.0 2.0 0.00 0.00 0.00 46 1008.0
20260502195958 53 333 3.0 3.0 0.00 0.00 0.00 44 1008.0
20260502195456 53 343 0.0 1.0 0.00 0.00 0.00 47 1008.1
20260502194951 53 280 4.0 4.0 0.00 0.00 0.00 44 1008.1
20260502194448 53 341 2.0 2.0 0.00 0.00 0.00 45 1008.2
20260502193944 53 353 0.0 0.0 0.00 0.00 0.00 47 1008.6
20260502193442 53 310 2.0 3.0 0.00 0.00 0.00 48 1008.3
20260502192937 53 17 3.0 4.0 0.00 0.00 0.00 45 1008.5
20260502192434 53 303 1.0 2.0 0.00 0.00 0.00 47 1008.5
20260502191931 53 328 3.0 3.0 0.00 0.00 0.00 46 1008.6
20260502191430 53 309 5.0 7.0 0.00 0.00 0.00 48 1008.6
20260502190927 54 322 1.0 2.0 0.00 0.00 0.00 43 1008.7
20260502190424 54 331 3.0 3.0 0.00 0.00 0.00 45 1009.0
20260502185920 55 352 1.0 2.0 0.00 0.00 0.00 43 1009.0
20260502185415 54 344 1.0 2.0 0.00 0.00 0.00 45 1009.1
20260502184912 55 348 2.0 3.0 0.00 0.00 0.00 44 1009.1
20260502184408 54 350 3.0 3.0 0.00 0.00 0.00 43 1009.4
20260502183904 55 6 1.0 2.0 0.00 0.00 0.00 46 1009.2
20260502183400 55 300 1.0 1.0 0.00 0.00 0.00 50 1009.2
20260502182856 54 295 4.0 4.0 0.00 0.00 0.00 44 1009.4
20260502182352 53 266 1.0 1.0 0.00 0.00 0.00 46 1009.3
20260502181848 53 134 3.0 3.0 0.00 0.00 0.00 44 1009.3
20260502181347 53 330 2.0 2.0 0.00 0.00 0.00 50 1009.3
20260502180845 53 306 1.0 1.0 0.00 0.00 0.00 48 1009.4
20260502180341 53 16 2.0 3.0 0.00 0.00 0.00 50 1009.6
20260502170300 52 22 1.0 1.0 0.00 0.00 0.00 51 1009.6
20260502164248 51 359 0.0 1.0 0.00 0.00 0.00 56 1010.0
20260502163743 51 345 2.0 2.0 0.00 0.00 0.00 54 1010.0
20260502163240 52 334 3.0 3.0 0.00 0.00 0.00 53 1009.8
20260502162737 52 75 2.0 2.0 0.00 0.00 0.00 49 1009.9
20260502162234 52 340 3.0 3.0 0.00 0.00 0.00 50 1010.0
20260502161731 51 10 1.0 1.0 0.00 0.00 0.00 57 1010.2
20260502161227 50 2 3.0 3.0 0.00 0.00 0.00 49 1010.2
20260502160726 50 335 4.0 4.0 0.00 0.00 0.00 54 1010.3
20260502160225 51 261 2.0 2.0 0.00 0.00 0.00 52 1010.3
20260502152148 50 272 2.0 3.0 0.00 0.00 0.00 53 1010.5
20260502151646 51 9 0.0 0.0 0.00 0.00 0.00 54 1010.8
20260502151143 50 351 1.0 1.0 0.00 0.00 0.00 56 1010.5
20260502150640 49 333 0.0 0.0 0.00 0.00 0.00 59 1010.5
20260502150137 48 293 2.0 3.0 0.00 0.00 0.00 60 1010.6
20260502130525 45 356 1.0 2.0 0.00 0.00 0.00 68 1010.8
20260502123509 44 105 3.0 4.0 0.00 0.00 0.00 71 1010.9
20260502123005 44 21 2.0 2.0 0.00 0.00 0.00 72 1010.8
20260502122501 44 328 1.0 1.0 0.00 0.00 0.00 72 1010.5
20260502121959 44 10 1.0 1.0 0.00 0.00 0.00 73 1010.4
20260502121456 44 340 1.0 1.0 0.00 0.00 0.00 72 1010.8
20260502120954 43 5 0.0 0.0 0.00 0.00 0.00 74 1010.5
20260502120450 43 27 0.0 0.0 0.00 0.00 0.00 75 1010.8
20260502115444 42 35 2.0 4.0 0.00 0.00 0.00 73 1010.5
20260502114940 42 15 1.0 2.0 0.00 0.00 0.00 75 1010.8
20260502114437 42 33 1.0 2.0 0.00 0.00 0.00 75 1010.9
20260502113934 42 12 0.0 0.0 0.00 0.00 0.00 75 1010.8
20260502113432 42 2 0.0 0.0 0.00 0.00 0.00 75 1010.9
20260502112931 42 356 0.0 0.0 0.00 0.00 0.00 78 1010.8
20260502112427 42 6 0.0 0.0 0.00 0.00 0.00 78 1010.6
20260502111925 42 353 0.0 1.0 0.00 0.00 0.00 77 1010.8
20260502111422 42 349 0.0 1.0 0.00 0.00 0.00 76 1010.9
20260502110919 41 188 3.0 3.0 0.00 0.00 0.00 76 1010.9
20260502110417 41 356 0.0 0.0 0.00 0.00 0.00 77 1010.8
20260502105914 41 21 0.0 1.0 0.00 0.00 0.00 77 1010.8
20260502105411 41 351 1.0 1.0 0.00 0.00 0.00 78 1010.6
20260502104909 41 341 1.0 2.0 0.00 0.00 0.00 78 1010.9
20260502104406 41 18 1.0 2.0 0.00 0.00 0.00 78 1010.6
20260502103903 41 353 0.0 0.0 0.00 0.00 0.00 77 1010.5
20260502103401 42 288 2.0 2.0 0.00 0.00 0.00 75 1010.6
20260502102857 41 41 1.0 2.0 0.00 0.00 0.00 76 1011.0
20260502102354 41 355 1.0 1.0 0.00 0.00 0.00 77 1010.8
20260502101852 41 331 1.0 2.0 0.00 0.00 0.00 79 1010.4
20260502101350 41 354 0.0 0.0 0.00 0.00 0.00 77 1010.6
20260502100848 41 14 0.0 1.0 0.00 0.00 0.00 77 1010.5
20260502100347 41 7 2.0 2.0 0.00 0.00 0.00 78 1010.5
20260502091320 42 355 0.0 0.0 0.00 0.00 0.00 75 1010.5
20260502090818 42 354 0.0 1.0 0.00 0.00 0.00 75 1010.2
20260502090315 42 13 2.0 3.0 0.00 0.00 0.00 75 1010.6
20260502071210 44 1 2.0 2.0 0.00 0.00 0.00 76 1009.8
20260502070708 44 3 2.0 2.0 0.00 0.00 0.00 78 1009.8
20260502070206 44 355 1.0 1.0 0.00 0.00 0.00 77 1010.0
20260502065704 45 357 1.0 1.0 0.00 0.00 0.00 75 1009.8
20260502065201 45 338 1.0 2.0 0.00 0.00 0.00 75 1009.8
20260502064700 45 331 1.0 1.0 0.00 0.00 0.00 75 1009.5
20260502064156 45 325 1.0 2.0 0.00 0.00 0.00 75 1009.8
20260502063654 45 5 2.0 2.0 0.00 0.00 0.00 73 1009.7
20260502063152 45 339 3.0 4.0 0.00 0.00 0.00 74 1009.6
20260502062649 45 345 2.0 2.0 0.00 0.00 0.00 74 1009.4
20260502062146 46 253 2.0 6.0 0.00 0.00 0.00 73 1009.5
20260502061644 46 2 0.0 1.0 0.00 0.00 0.00 74 1009.5
20260502061142 46 302 1.0 2.0 0.00 0.00 0.00 73 1009.5
20260502060642 46 302 2.0 3.0 0.00 0.00 0.00 73 1009.6
20260502060139 46 337 3.0 4.0 0.00 0.00 0.00 72 1009.8
20260502055637 46 352 5.0 7.0 0.00 0.00 0.00 73 1009.8
20260502055134 46 347 2.0 2.0 0.00 0.00 0.00 74 1009.8
20260502054633 46 316 6.0 8.0 0.00 0.00 0.00 74 1009.8
20260502054130 47 3 0.0 1.0 0.00 0.00 0.00 74 1009.9
20260502053627 47 10 3.0 4.0 0.00 0.00 0.00 74 1009.7
20260502053125 47 331 1.0 1.0 0.00 0.00 0.00 74 1009.6
20260502052623 47 311 2.0 2.0 0.00 0.00 0.00 75 1009.6
20260502052121 47 332 2.0 3.0 0.00 0.00 0.00 75 1009.5
20260502051619 47 353 1.0 1.0 0.00 0.00 0.00 75 1009.4
20260502051117 47 333 2.0 2.0 0.00 0.00 0.00 75 1009.7
20260502050612 47 298 2.0 2.0 0.00 0.00 0.00 75 1009.4
20260502050109 48 328 2.0 2.0 0.00 0.00 0.00 75 1009.5
20260502045606 48 317 4.0 7.0 0.00 0.00 0.00 75 1009.3
20260502045103 48 310 2.0 3.0 0.00 0.00 0.00 75 1009.4
20260502044559 48 319 4.0 4.0 0.00 0.00 0.00 75 1009.5
20260502044056 48 313 3.0 3.0 0.00 0.00 0.00 76 1009.4
20260502043554 49 297 2.0 2.0 0.00 0.00 0.00 76 1009.4
20260502043050 49 333 1.0 2.0 0.00 0.00 0.00 75 1009.3
20260502042545 50 346 3.0 3.0 0.00 0.00 0.00 74 1009.4
20260502042043 50 267 2.0 2.0 0.00 0.00 0.00 73 1009.8
20260502041540 50 18 1.0 1.0 0.00 0.00 0.00 73 1009.5